Time,TemperatureF,DewpointF,PressureIn,WindDirection,WindDirectionDegrees,WindSpeedMPH,WindSpeedGustMPH,Humidity,HourlyPrecipIn,Conditions,Clouds,dailyrainin,SoftwareType,DateUTC
2013-02-08 00:01:00,31.1,28.1,30.39,North,0,0.0,0.0,88,0.00,,,0.48,WUHU216HW,2013-02-08 06:01:00,
2013-02-08 02:59:00,29.3,24.5,30.47,North,0,0.0,0.0,82,0.00,,,0.00,WUHU216HW,2013-02-08 08:59:00,
2013-02-08 03:04:00,29.2,24.7,30.47,North,0,0.0,0.0,83,0.00,,,0.00,WUHU216HW,2013-02-08 09:04:00,
2013-02-08 03:09:00,28.8,24.3,30.47,North,0,0.0,0.0,83,0.00,,,0.00,WUHU216HW,2013-02-08 09:09:00,
2013-02-08 03:14:00,28.6,24.4,30.48,North,0,0.0,0.0,84,0.00,,,0.00,WUHU216HW,2013-02-08 09:14:00,
2013-02-08 03:19:00,28.4,24.0,30.48,North,0,0.0,0.0,83,0.00,,,0.00,WUHU216HW,2013-02-08 09:19:00,
2013-02-08 03:24:00,28.4,24.0,30.48,North,0,0.0,0.0,83,0.00,,,0.00,WUHU216HW,2013-02-08 09:24:00,
2013-02-08 03:29:00,28.4,24.0,30.49,North,0,0.0,0.0,83,0.00,,,0.00,WUHU216HW,2013-02-08 09:29:00,
2013-02-08 03:34:00,28.3,23.8,30.49,North,0,0.0,0.0,83,0.00,,,0.00,WUHU216HW,2013-02-08 09:34:00,
2013-02-08 03:39:00,28.3,24.0,30.49,North,0,0.0,0.0,84,0.00,,,0.00,WUHU216HW,2013-02-08 09:39:00,
2013-02-08 03:44:00,28.1,23.6,30.50,North,0,0.0,0.0,83,0.00,,,0.00,WUHU216HW,2013-02-08 09:44:00,
2013-02-08 03:49:00,28.1,23.9,30.50,North,0,0.0,0.0,84,0.00,,,0.00,WUHU216HW,2013-02-08 09:49:00,
2013-02-08 03:54:00,28.3,24.0,30.50,North,0,0.0,0.0,84,0.00,,,0.00,WUHU216HW,2013-02-08 09:54:00,
2013-02-08 03:59:00,28.1,23.6,30.51,North,0,0.0,0.0,83,0.00,,,0.00,WUHU216HW,2013-02-08 09:59:00,
2013-02-08 04:04:00,28.1,23.6,30.51,North,0,0.0,0.0,83,0.00,,,0.00,WUHU216HW,2013-02-08 10:04:00,
2013-02-08 04:09:00,28.1,23.9,30.51,North,0,0.0,0.0,84,0.00,,,0.00,WUHU216HW,2013-02-08 10:09:00,
2013-02-08 04:14:00,28.1,23.6,30.52,North,0,0.0,0.0,83,0.00,,,0.00,WUHU216HW,2013-02-08 10:14:00,
2013-02-08 04:19:00,28.1,23.6,30.52,North,0,0.0,0.0,83,0.00,,,0.00,WUHU216HW,2013-02-08 10:19:00,
2013-02-08 04:24:00,27.9,23.4,30.53,North,0,0.0,0.0,83,0.00,,,0.00,WUHU216HW,2013-02-08 10:24:00,
2013-02-08 04:29:00,27.9,23.4,30.53,North,0,0.0,0.0,83,0.00,,,0.00,WUHU216HW,2013-02-08 10:29:00,
2013-02-08 04:34:00,27.9,23.7,30.52,North,0,0.0,0.0,84,0.00,,,0.00,WUHU216HW,2013-02-08 10:34:00,
2013-02-08 04:39:00,27.7,23.2,30.53,North,0,0.0,0.0,83,0.00,,,0.00,WUHU216HW,2013-02-08 10:39:00,
2013-02-08 04:44:00,27.7,23.5,30.53,North,0,0.0,0.0,84,0.00,,,0.00,WUHU216HW,2013-02-08 10:44:00,
2013-02-08 04:49:00,27.7,23.5,30.53,North,0,0.0,0.0,84,0.00,,,0.00,WUHU216HW,2013-02-08 10:49:00,
2013-02-08 04:54:00,27.7,23.5,30.53,North,0,0.0,0.0,84,0.00,,,0.00,WUHU216HW,2013-02-08 10:54:00,
2013-02-08 04:59:00,27.7,23.5,30.54,North,0,0.0,0.0,84,0.00,,,0.00,WUHU216HW,2013-02-08 10:59:00,
2013-02-08 05:04:00,27.7,23.5,30.54,North,0,0.0,0.0,84,0.00,,,0.00,WUHU216HW,2013-02-08 11:04:00,
2013-02-08 05:09:00,27.7,23.5,30.54,North,0,0.0,0.0,84,0.00,,,0.00,WUHU216HW,2013-02-08 11:09:00,
2013-02-08 05:14:00,27.5,23.1,30.54,North,0,0.0,0.0,83,0.00,,,0.00,WUHU216HW,2013-02-08 11:14:00,
2013-02-08 05:19:00,27.5,23.1,30.55,North,0,0.0,0.0,83,0.00,,,0.00,WUHU216HW,2013-02-08 11:19:00,
2013-02-08 05:24:00,27.4,22.9,30.55,North,0,0.0,0.0,83,0.00,,,0.00,WUHU216HW,2013-02-08 11:24:00,
2013-02-08 05:29:00,27.2,22.7,30.56,North,0,0.0,0.0,83,0.00,,,0.00,WUHU216HW,2013-02-08 11:29:00,
2013-02-08 05:34:00,27.0,22.1,30.56,North,0,0.0,0.0,82,0.00,,,0.00,WUHU216HW,2013-02-08 11:34:00,
2013-02-08 05:39:00,26.6,21.8,30.56,North,0,0.0,0.0,82,0.00,,,0.00,WUHU216HW,2013-02-08 11:39:00,
2013-02-08 05:44:00,26.6,21.8,30.57,North,0,0.0,0.0,82,0.00,,,0.00,WUHU216HW,2013-02-08 11:44:00,
2013-02-08 05:49:00,26.5,21.7,30.57,North,0,0.0,0.0,82,0.00,,,0.00,WUHU216HW,2013-02-08 11:49:00,
2013-02-08 05:54:00,26.5,22.0,30.57,North,0,0.0,0.0,83,0.00,,,0.00,WUHU216HW,2013-02-08 11:54:00,
2013-02-08 05:59:00,26.5,22.0,30.57,North,0,0.0,0.0,83,0.00,,,0.00,WUHU216HW,2013-02-08 11:59:00,
2013-02-08 06:04:00,26.3,21.8,30.58,North,0,0.0,0.0,83,0.00,,,0.00,WUHU216HW,2013-02-08 12:04:00,
2013-02-08 06:09:00,26.3,21.8,30.58,North,0,0.0,0.0,83,0.00,,,0.00,WUHU216HW,2013-02-08 12:09:00,
2013-02-08 06:14:00,26.3,21.8,30.58,North,0,0.0,0.0,83,0.00,,,0.00,WUHU216HW,2013-02-08 12:14:00,
2013-02-08 06:19:00,26.3,21.5,30.58,North,0,0.0,0.0,82,0.00,,,0.00,WUHU216HW,2013-02-08 12:19:00,
2013-02-08 06:24:00,26.3,21.5,30.59,North,0,0.0,0.0,82,0.00,,,0.00,WUHU216HW,2013-02-08 12:24:00,
2013-02-08 06:29:00,26.1,21.3,30.59,North,0,0.0,0.0,82,0.00,,,0.00,WUHU216HW,2013-02-08 12:29:00,
2013-02-08 06:34:00,26.1,21.3,30.59,North,0,0.0,0.0,82,0.00,,,0.00,WUHU216HW,2013-02-08 12:34:00,
2013-02-08 06:39:00,26.1,21.1,30.59,North,0,0.0,0.0,81,0.00,,,0.00,WUHU216HW,2013-02-08 12:39:00,
2013-02-08 06:44:00,26.1,21.3,30.60,North,0,0.0,0.0,82,0.00,,,0.00,WUHU216HW,2013-02-08 12:44:00,
2013-02-08 06:49:00,26.1,21.3,30.60,North,0,0.0,0.0,82,0.00,,,0.00,WUHU216HW,2013-02-08 12:49:00,
2013-02-08 06:54:00,25.9,21.2,30.60,North,0,0.0,0.0,82,0.00,,,0.00,WUHU216HW,2013-02-08 12:54:00,
2013-02-08 06:59:00,25.9,20.9,30.60,North,0,0.0,0.0,81,0.00,,,0.00,WUHU216HW,2013-02-08 12:59:00,
2013-02-08 07:04:00,25.9,20.9,30.60,North,0,0.0,0.0,81,0.00,,,0.00,WUHU216HW,2013-02-08 13:04:00,
2013-02-08 07:09:00,26.1,21.1,30.61,North,0,0.0,0.0,81,0.00,,,0.00,WUHU216HW,2013-02-08 13:09:00,
2013-02-08 07:14:00,26.1,21.1,30.61,North,0,0.0,0.0,81,0.00,,,0.00,WUHU216HW,2013-02-08 13:14:00,
2013-02-08 07:19:00,26.1,21.3,30.61,North,0,0.0,0.0,82,0.00,,,0.00,WUHU216HW,2013-02-08 13:19:00,
2013-02-08 07:24:00,26.1,21.3,30.61,North,0,0.0,0.0,82,0.00,,,0.00,WUHU216HW,2013-02-08 13:24:00,
2013-02-08 07:29:00,26.1,21.3,30.61,North,0,0.0,0.0,82,0.00,,,0.00,WUHU216HW,2013-02-08 13:29:00,
2013-02-08 07:34:00,26.1,21.3,30.61,North,0,0.0,0.0,82,0.00,,,0.00,WUHU216HW,2013-02-08 13:34:00,
2013-02-08 07:39:00,26.1,21.6,30.61,North,0,0.0,0.0,83,0.00,,,0.00,WUHU216HW,2013-02-08 13:39:00,
2013-02-08 07:44:00,26.3,21.8,30.61,North,0,0.0,0.0,83,0.00,,,0.00,WUHU216HW,2013-02-08 13:44:00,
2013-02-08 07:49:00,26.3,21.8,30.61,North,0,0.0,0.0,83,0.00,,,0.00,WUHU216HW,2013-02-08 13:49:00,
2013-02-08 07:54:00,26.3,21.8,30.63,North,0,0.0,0.0,83,0.00,,,0.00,WUHU216HW,2013-02-08 13:54:00,
2013-02-08 07:59:00,26.3,21.8,30.63,North,0,0.0,0.0,83,0.00,,,0.00,WUHU216HW,2013-02-08 13:59:00,
2013-02-08 08:04:00,26.5,21.7,30.64,North,0,0.0,0.0,82,0.00,,,0.00,WUHU216HW,2013-02-08 14:04:00,
2013-02-08 08:09:00,26.5,21.7,30.64,North,0,0.0,0.0,82,0.00,,,0.00,WUHU216HW,2013-02-08 14:09:00,
2013-02-08 08:14:00,26.5,22.0,30.65,North,0,0.0,0.0,83,0.00,,,0.00,WUHU216HW,2013-02-08 14:14:00,
2013-02-08 08:19:00,26.5,21.7,30.65,North,0,0.0,0.0,82,0.00,,,0.00,WUHU216HW,2013-02-08 14:19:00,
2013-02-08 08:24:00,26.8,22.3,30.65,North,0,0.0,0.0,83,0.00,,,0.00,WUHU216HW,2013-02-08 14:24:00,
2013-02-08 08:29:00,27.0,22.5,30.65,North,0,0.0,0.0,83,0.00,,,0.00,WUHU216HW,2013-02-08 14:29:00,
2013-02-08 08:34:00,27.0,22.5,30.66,North,0,0.0,0.0,83,0.00,,,0.00,WUHU216HW,2013-02-08 14:34:00,
2013-02-08 08:39:00,27.2,22.1,30.66,North,0,0.0,0.0,81,0.00,,,0.00,WUHU216HW,2013-02-08 14:39:00,
2013-02-08 08:44:00,27.0,21.9,30.65,North,0,0.0,0.0,81,0.00,,,0.00,WUHU216HW,2013-02-08 14:44:00,
2013-02-08 08:49:00,27.0,21.9,30.65,North,0,0.0,0.0,81,0.00,,,0.00,WUHU216HW,2013-02-08 14:49:00,
2013-02-08 08:54:00,27.0,21.9,30.65,North,0,0.0,0.0,81,0.00,,,0.00,WUHU216HW,2013-02-08 14:54:00,
2013-02-08 08:59:00,27.2,22.3,30.65,North,0,0.0,0.0,82,0.00,,,0.00,WUHU216HW,2013-02-08 14:59:00,
2013-02-08 09:04:00,27.5,23.1,30.66,North,0,0.0,0.0,83,0.00,,,0.00,WUHU216HW,2013-02-08 15:04:00,
2013-02-08 09:09:00,27.7,22.9,30.66,North,0,0.0,0.0,82,0.00,,,0.00,WUHU216HW,2013-02-08 15:09:00,
2013-02-08 09:14:00,27.7,22.6,30.66,North,0,0.0,0.0,81,0.00,,,0.00,WUHU216HW,2013-02-08 15:14:00,
2013-02-08 09:19:00,27.7,22.1,30.66,North,0,0.0,0.0,79,0.00,,,0.00,WUHU216HW,2013-02-08 15:19:00,
2013-02-08 09:24:00,27.7,22.3,30.66,North,0,0.0,0.0,80,0.00,,,0.00,WUHU216HW,2013-02-08 15:24:00,
2013-02-08 09:29:00,27.7,22.6,30.66,North,0,0.0,0.0,81,0.00,,,0.00,WUHU216HW,2013-02-08 15:29:00,
2013-02-08 09:34:00,27.7,22.6,30.66,North,0,0.0,0.0,81,0.00,,,0.00,WUHU216HW,2013-02-08 15:34:00,
2013-02-08 09:39:00,27.7,22.6,30.66,North,0,0.0,0.0,81,0.00,,,0.00,WUHU216HW,2013-02-08 15:39:00,
2013-02-08 09:44:00,27.9,22.8,30.67,North,0,0.0,0.0,81,0.00,,,0.00,WUHU216HW,2013-02-08 15:44:00,
2013-02-08 09:49:00,27.9,22.5,30.66,North,0,0.0,0.0,80,0.00,,,0.00,WUHU216HW,2013-02-08 15:49:00,
2013-02-08 09:54:00,28.1,23.0,30.66,North,0,0.0,0.0,81,0.00,,,0.00,WUHU216HW,2013-02-08 15:54:00,
2013-02-08 09:59:00,28.3,22.6,30.66,North,0,0.0,0.0,79,0.00,,,0.00,WUHU216HW,2013-02-08 15:59:00,
2013-02-08 10:04:00,28.4,22.8,30.67,North,0,0.0,0.0,79,0.00,,,0.00,WUHU216HW,2013-02-08 16:04:00,
2013-02-08 10:09:00,28.4,23.0,30.67,North,0,0.0,0.0,80,0.00,,,0.00,WUHU216HW,2013-02-08 16:09:00,
2013-02-08 10:14:00,28.8,23.4,30.67,North,0,0.0,0.0,80,0.00,,,0.00,WUHU216HW,2013-02-08 16:14:00,
2013-02-08 10:19:00,29.0,23.0,30.67,North,0,0.0,0.0,78,0.00,,,0.00,WUHU216HW,2013-02-08 16:19:00,
2013-02-08 10:24:00,29.2,23.5,30.67,North,0,0.0,0.0,79,0.00,,,0.00,WUHU216HW,2013-02-08 16:24:00,
2013-02-08 10:29:00,29.2,22.9,30.68,North,0,0.0,0.0,77,0.00,,,0.00,WUHU216HW,2013-02-08 16:29:00,
2013-02-08 10:34:00,29.0,23.0,30.68,North,0,0.0,0.0,78,0.00,,,0.00,WUHU216HW,2013-02-08 16:34:00,
2013-02-08 10:39:00,29.2,23.5,30.69,North,0,0.0,0.0,79,0.00,,,0.00,WUHU216HW,2013-02-08 16:39:00,
2013-02-08 10:44:00,29.5,23.8,30.69,North,0,0.0,0.0,79,0.00,,,0.00,WUHU216HW,2013-02-08 16:44:00,
2013-02-08 10:49:00,29.3,23.3,30.69,North,0,0.0,0.0,78,0.00,,,0.00,WUHU216HW,2013-02-08 16:49:00,
2013-02-08 10:54:00,29.5,23.8,30.69,North,0,0.0,0.0,79,0.00,,,0.00,WUHU216HW,2013-02-08 16:54:00,
2013-02-08 10:59:00,29.5,23.5,30.69,North,0,0.0,0.0,78,0.00,,,0.00,WUHU216HW,2013-02-08 16:59:00,
2013-02-08 11:04:00,29.3,23.3,30.69,North,0,0.0,0.0,78,0.00,,,0.00,WUHU216HW,2013-02-08 17:04:00,
2013-02-08 11:09:00,29.5,23.8,30.69,North,0,0.0,0.0,79,0.00,,,0.00,WUHU216HW,2013-02-08 17:09:00,
2013-02-08 11:14:00,29.7,23.9,30.69,North,0,0.0,0.0,79,0.00,,,0.00,WUHU216HW,2013-02-08 17:14:00,
2013-02-08 11:19:00,30.1,24.3,30.69,North,0,0.0,0.0,79,0.00,,,0.00,WUHU216HW,2013-02-08 17:19:00,
2013-02-08 11:24:00,29.9,23.5,30.69,North,0,0.0,0.0,77,0.00,,,0.00,WUHU216HW,2013-02-08 17:24:00,
2013-02-08 11:29:00,29.9,23.9,30.69,North,0,0.0,0.0,78,0.00,,,0.00,WUHU216HW,2013-02-08 17:29:00,
2013-02-08 11:34:00,29.9,23.9,30.69,North,0,0.0,0.0,78,0.00,,,0.00,WUHU216HW,2013-02-08 17:34:00,
2013-02-08 11:39:00,29.9,24.1,30.69,North,0,0.0,0.0,79,0.00,,,0.00,WUHU216HW,2013-02-08 17:39:00,
2013-02-08 11:44:00,30.2,24.8,30.69,North,0,0.0,0.0,80,0.00,,,0.00,WUHU216HW,2013-02-08 17:44:00,
2013-02-08 11:49:00,30.4,24.0,30.69,North,0,0.0,0.0,77,0.00,,,0.00,WUHU216HW,2013-02-08 17:49:00,
2013-02-08 11:54:00,30.2,24.2,30.69,North,0,0.0,0.0,78,0.00,,,0.00,WUHU216HW,2013-02-08 17:54:00,
2013-02-08 11:59:00,30.4,24.4,30.69,North,0,0.0,0.0,78,0.00,,,0.00,WUHU216HW,2013-02-08 17:59:00,
2013-02-08 12:04:00,30.1,23.4,30.69,North,0,0.0,0.0,76,0.00,,,0.00,WUHU216HW,2013-02-08 18:04:00,
2013-02-08 12:09:00,30.1,24.0,30.68,North,0,0.0,0.0,78,0.00,,,0.00,WUHU216HW,2013-02-08 18:09:00,
2013-02-08 12:14:00,30.2,24.2,30.68,North,0,0.0,0.0,78,0.00,,,0.00,WUHU216HW,2013-02-08 18:14:00,
2013-02-08 12:19:00,30.2,23.9,30.68,North,0,0.0,0.0,77,0.00,,,0.00,WUHU216HW,2013-02-08 18:19:00,
2013-02-08 12:24:00,30.2,24.2,30.68,North,0,0.0,0.0,78,0.00,,,0.00,WUHU216HW,2013-02-08 18:24:00,
2013-02-08 12:29:00,30.4,24.4,30.68,North,0,0.0,0.0,78,0.00,,,0.00,WUHU216HW,2013-02-08 18:29:00,
2013-02-08 12:35:00,30.6,24.6,30.68,North,0,0.0,0.0,78,0.00,,,0.00,WUHU216HW,2013-02-08 18:35:00,
2013-02-08 12:40:00,30.6,24.6,30.68,North,0,0.0,0.0,78,0.00,,,0.00,WUHU216HW,2013-02-08 18:40:00,
2013-02-08 12:45:00,30.8,24.8,30.68,North,0,0.0,0.0,78,0.00,,,0.00,WUHU216HW,2013-02-08 18:45:00,
2013-02-08 12:50:00,30.8,24.8,30.68,North,0,0.0,0.0,78,0.00,,,0.00,WUHU216HW,2013-02-08 18:50:00,
2013-02-08 12:55:00,30.8,24.1,30.68,North,0,0.0,0.0,76,0.00,,,0.00,WUHU216HW,2013-02-08 18:55:00,
2013-02-08 13:00:00,30.8,24.1,30.68,North,0,0.0,0.0,76,0.00,,,0.00,WUHU216HW,2013-02-08 19:00:00,
2013-02-08 13:05:00,30.6,24.0,30.68,North,0,0.0,0.0,76,0.00,,,0.00,WUHU216HW,2013-02-08 19:05:00,
2013-02-08 13:10:00,30.4,24.0,30.68,North,0,0.0,0.0,77,0.00,,,0.00,WUHU216HW,2013-02-08 19:10:00,
2013-02-08 13:15:00,30.2,23.6,30.68,North,0,0.0,0.0,76,0.00,,,0.00,WUHU216HW,2013-02-08 19:15:00,
2013-02-08 13:20:00,30.6,24.0,30.68,North,0,0.0,0.0,76,0.00,,,0.00,WUHU216HW,2013-02-08 19:20:00,
2013-02-08 13:25:00,30.6,24.2,30.68,North,0,0.0,0.0,77,0.00,,,0.00,WUHU216HW,2013-02-08 19:25:00,
2013-02-08 13:30:00,30.8,24.4,30.68,North,0,0.0,0.0,77,0.00,,,0.00,WUHU216HW,2013-02-08 19:30:00,
2013-02-08 13:35:00,31.1,24.8,30.68,North,0,0.0,0.0,77,0.00,,,0.00,WUHU216HW,2013-02-08 19:35:00,
2013-02-08 13:40:00,31.1,25.1,30.67,North,0,0.0,0.0,78,0.00,,,0.00,WUHU216HW,2013-02-08 19:40:00,
2013-02-08 13:45:00,31.3,24.9,30.67,North,0,0.0,0.0,77,0.00,,,0.00,WUHU216HW,2013-02-08 19:45:00,
2013-02-08 13:50:00,31.5,25.5,30.67,North,0,0.0,0.0,78,0.00,,,0.00,WUHU216HW,2013-02-08 19:50:00,
2013-02-08 13:55:00,31.3,24.9,30.68,North,0,0.0,0.0,77,0.00,,,0.00,WUHU216HW,2013-02-08 19:55:00,
2013-02-08 14:00:00,31.3,24.9,30.67,North,0,0.0,0.0,77,0.00,,,0.00,WUHU216HW,2013-02-08 20:00:00,
2013-02-08 14:05:00,31.3,25.3,30.68,North,0,0.0,0.0,78,0.00,,,0.00,WUHU216HW,2013-02-08 20:05:00,
2013-02-08 14:10:00,31.3,25.3,30.68,North,0,0.0,0.0,78,0.00,,,0.00,WUHU216HW,2013-02-08 20:10:00,
2013-02-08 14:15:00,31.1,24.5,30.68,North,0,0.0,0.0,76,0.00,,,0.00,WUHU216HW,2013-02-08 20:15:00,
2013-02-08 14:20:00,31.0,24.9,30.68,North,0,0.0,0.0,78,0.00,,,0.00,WUHU216HW,2013-02-08 20:20:00,
2013-02-08 14:25:00,31.0,24.9,30.68,North,0,0.0,0.0,78,0.00,,,0.00,WUHU216HW,2013-02-08 20:25:00,
2013-02-08 14:30:00,31.0,24.9,30.68,North,0,0.0,0.0,78,0.00,,,0.00,WUHU216HW,2013-02-08 20:30:00,
2013-02-08 14:35:00,30.8,24.8,30.68,North,0,0.0,0.0,78,0.00,,,0.00,WUHU216HW,2013-02-08 20:35:00,
2013-02-08 14:40:00,30.6,24.6,30.68,North,0,0.0,0.0,78,0.00,,,0.00,WUHU216HW,2013-02-08 20:40:00,
2013-02-08 14:45:00,30.6,24.8,30.68,North,0,0.0,0.0,79,0.00,,,0.00,WUHU216HW,2013-02-08 20:45:00,
2013-02-08 14:50:00,30.8,24.8,30.69,North,0,0.0,0.0,78,0.00,,,0.00,WUHU216HW,2013-02-08 20:50:00,
2013-02-08 14:55:00,30.6,24.6,30.68,North,0,0.0,0.0,78,0.00,,,0.00,WUHU216HW,2013-02-08 20:55:00,
2013-02-08 15:00:00,30.6,24.6,30.69,North,0,0.0,0.0,78,0.00,,,0.00,WUHU216HW,2013-02-08 21:00:00,
2013-02-08 15:05:00,30.6,24.8,30.68,North,0,0.0,0.0,79,0.00,,,0.00,WUHU216HW,2013-02-08 21:05:00,
2013-02-08 15:10:00,30.6,24.8,30.69,North,0,0.0,0.0,79,0.00,,,0.00,WUHU216HW,2013-02-08 21:10:00,
2013-02-08 15:15:00,30.6,24.8,30.69,North,0,0.0,0.0,79,0.00,,,0.00,WUHU216HW,2013-02-08 21:15:00,
2013-02-08 15:20:00,30.6,24.8,30.69,North,0,0.0,0.0,79,0.00,,,0.00,WUHU216HW,2013-02-08 21:20:00,
2013-02-08 15:25:00,30.6,25.2,30.69,North,0,0.0,0.0,80,0.00,,,0.00,WUHU216HW,2013-02-08 21:25:00,
2013-02-08 15:30:00,30.6,25.2,30.69,North,0,0.0,0.0,80,0.00,,,0.00,WUHU216HW,2013-02-08 21:30:00,
2013-02-08 15:35:00,30.6,25.2,30.69,North,0,0.0,0.0,80,0.00,,,0.00,WUHU216HW,2013-02-08 21:35:00,
2013-02-08 15:40:00,30.6,25.2,30.70,North,0,0.0,0.0,80,0.00,,,0.00,WUHU216HW,2013-02-08 21:40:00,
2013-02-08 15:45:00,30.8,25.4,30.69,North,0,0.0,0.0,80,0.00,,,0.00,WUHU216HW,2013-02-08 21:45:00,
2013-02-08 15:50:00,30.8,25.0,30.69,North,0,0.0,0.0,79,0.00,,,0.00,WUHU216HW,2013-02-08 21:50:00,
2013-02-08 15:55:00,31.0,25.2,30.69,North,0,0.0,0.0,79,0.00,,,0.00,WUHU216HW,2013-02-08 21:55:00,
2013-02-08 16:00:00,31.0,25.2,30.69,North,0,0.0,0.0,79,0.00,,,0.00,WUHU216HW,2013-02-08 22:00:00,
2013-02-08 16:05:00,31.0,24.9,30.69,North,0,0.0,0.0,78,0.00,,,0.00,WUHU216HW,2013-02-08 22:05:00,
2013-02-08 16:10:00,30.8,25.0,30.69,North,0,0.0,0.0,79,0.00,,,0.00,WUHU216HW,2013-02-08 22:10:00,
2013-02-08 16:15:00,30.6,24.8,30.69,North,0,0.0,0.0,79,0.00,,,0.00,WUHU216HW,2013-02-08 22:15:00,
2013-02-08 16:20:00,30.6,24.8,30.69,North,0,0.0,0.0,79,0.00,,,0.00,WUHU216HW,2013-02-08 22:20:00,
2013-02-08 16:25:00,30.6,24.8,30.69,North,0,0.0,0.0,79,0.00,,,0.00,WUHU216HW,2013-02-08 22:25:00,
2013-02-08 16:30:00,30.4,24.4,30.69,North,0,0.0,0.0,78,0.00,,,0.00,WUHU216HW,2013-02-08 22:30:00,
2013-02-08 16:35:00,30.2,24.2,30.70,North,0,0.0,0.0,78,0.00,,,0.00,WUHU216HW,2013-02-08 22:35:00,
2013-02-08 16:40:00,30.2,24.5,30.69,North,0,0.0,0.0,79,0.00,,,0.00,WUHU216HW,2013-02-08 22:40:00,
2013-02-08 16:45:00,29.9,24.1,30.69,North,0,0.0,0.0,79,0.00,,,0.00,WUHU216HW,2013-02-08 22:45:00,
2013-02-08 16:50:00,29.9,24.1,30.69,North,0,0.0,0.0,79,0.00,,,0.00,WUHU216HW,2013-02-08 22:50:00,
2013-02-08 16:55:00,29.7,23.9,30.69,North,0,0.0,0.0,79,0.00,,,0.00,WUHU216HW,2013-02-08 22:55:00,
2013-02-08 17:00:00,29.7,23.9,30.69,North,0,0.0,0.0,79,0.00,,,0.00,WUHU216HW,2013-02-08 23:00:00,
2013-02-08 17:05:00,29.5,23.8,30.70,North,0,0.0,0.0,79,0.00,,,0.00,WUHU216HW,2013-02-08 23:05:00,
2013-02-08 17:10:00,29.5,23.8,30.70,North,0,0.0,0.0,79,0.00,,,0.00,WUHU216HW,2013-02-08 23:10:00,
2013-02-08 21:59:00,27.0,22.8,30.69,North,0,0.0,0.0,84,0.00,,,0.00,WUHU216HW,2013-02-09 03:59:00,
2013-02-08 22:04:00,26.8,22.3,30.70,North,0,0.0,0.0,83,0.00,,,0.00,WUHU216HW,2013-02-09 04:04:00,
2013-02-08 22:09:00,26.8,22.6,30.70,North,0,0.0,0.0,84,0.00,,,0.00,WUHU216HW,2013-02-09 04:09:00,
2013-02-08 22:14:00,26.6,22.4,30.70,North,0,0.0,0.0,84,0.00,,,0.00,WUHU216HW,2013-02-09 04:14:00,
2013-02-08 22:19:00,26.6,22.4,30.70,North,0,0.0,0.0,84,0.00,,,0.00,WUHU216HW,2013-02-09 04:19:00,
2013-02-08 22:24:00,26.6,22.4,30.70,North,0,0.0,0.0,84,0.00,,,0.00,WUHU216HW,2013-02-09 04:24:00,
2013-02-08 22:29:00,26.5,22.0,30.70,North,0,0.0,0.0,83,0.00,,,0.00,WUHU216HW,2013-02-09 04:29:00,
2013-02-08 22:34:00,26.5,22.0,30.69,North,0,0.0,0.0,83,0.00,,,0.00,WUHU216HW,2013-02-09 04:34:00,
2013-02-08 22:39:00,26.3,21.8,30.69,North,0,0.0,0.0,83,0.00,,,0.00,WUHU216HW,2013-02-09 04:39:00,
2013-02-08 22:44:00,26.3,21.8,30.69,North,0,0.0,0.0,83,0.00,,,0.00,WUHU216HW,2013-02-09 04:44:00,
2013-02-08 22:49:00,26.3,21.8,30.69,North,0,0.0,0.0,83,0.00,,,0.00,WUHU216HW,2013-02-09 04:49:00,
2013-02-08 22:54:00,26.3,21.8,30.69,North,0,0.0,0.0,83,0.00,,,0.00,WUHU216HW,2013-02-09 04:54:00,
2013-02-08 22:59:00,26.3,21.8,30.69,North,0,0.0,0.0,83,0.00,,,0.00,WUHU216HW,2013-02-09 04:59:00,
2013-02-08 23:00:00,26.3,21.8,30.69,North,0,0.0,0.0,83,0.00,,,0.00,WUHU216HW,2013-02-09 05:00:00,
2013-02-08 23:05:00,26.3,21.8,30.69,North,0,0.0,0.0,83,0.00,,,0.00,WUHU216HW,2013-02-09 05:05:00,
2013-02-08 23:10:00,26.5,22.0,30.69,North,0,0.0,0.0,83,0.00,,,0.00,WUHU216HW,2013-02-09 05:10:00,
2013-02-08 23:15:00,26.5,22.2,30.69,North,0,0.0,0.0,84,0.00,,,0.00,WUHU216HW,2013-02-09 05:15:00,
2013-02-08 23:20:00,26.3,22.1,30.69,North,0,0.0,0.0,84,0.00,,,0.00,WUHU216HW,2013-02-09 05:20:00,
2013-02-08 23:25:00,26.3,21.8,30.69,North,0,0.0,0.0,83,0.00,,,0.00,WUHU216HW,2013-02-09 05:25:00,
2013-02-08 23:30:00,26.1,21.6,30.69,North,0,0.0,0.0,83,0.00,,,0.00,WUHU216HW,2013-02-09 05:30:00,
2013-02-08 23:35:00,25.9,21.4,30.68,North,0,0.0,0.0,83,0.00,,,0.00,WUHU216HW,2013-02-09 05:35:00,
2013-02-08 23:40:00,25.9,21.4,30.69,North,0,0.0,0.0,83,0.00,,,0.00,WUHU216HW,2013-02-09 05:40:00,
2013-02-08 23:45:00,25.7,21.2,30.69,North,0,0.0,0.0,83,0.00,,,0.00,WUHU216HW,2013-02-09 05:45:00,
2013-02-08 23:50:00,25.6,21.1,30.69,North,0,0.0,0.0,83,0.00,,,0.00,WUHU216HW,2013-02-09 05:50:00,
2013-02-08 23:55:00,25.6,21.1,30.70,North,0,0.0,0.0,83,0.00,,,0.00,WUHU216HW,2013-02-09 05:55:00,